Weather History for Orangeburg, SC

Change the Weather History Date:

Friday, June 28, 2013

  Actual Average Record
Temperature  
Mean Temperature 84 °F 80 °F  
Max Temperature 94 °F 91 °F 105 °F (1954)
Min Temperature 73 °F 70 °F 55 °F (1979)
Degree Days  
Heating Degree Days 0 0  
Month to date heating degree days 0 0  
Since 1 June heating degree days 0 0  
Since 1 July heating degree days 2181 2332  
Cooling Degree Days 19 15  
Month to date cooling degree days 395 367  
Year to date cooling degree days 657 670  
Since 1 June cooling degree days 395 367  
Growing Degree Days 33 (Base 50)    
Moisture  
Dew Point 71 °F    
Average Humidity 70    
Maximum Humidity 93    
Minimum Humidity 49    
Precipitation  
Precipitation 0.00 in 0.15 in 1.34 in (2011)
Month to date precipitation 6.33 4.79  
Year to date precipitation 23.71 22.41  
Sea Level Pressure  
Sea Level Pressure 29.74 in    
Wind  
Wind Speed 9 mph (SW)    
Max Wind Speed 21 mph    
Max Gust Speed 26 mph    
Visibility 10 miles    
Events      
T = Trace of Precipitation, MM = Missing Value Source: NWS Daily Summary

Daily Weather History Graph

Daily Weather History Graph

Search for Another Location

Airport:

Trip Planner

Search our weather history database for the weather conditions in past years. The results will help you decide how hot, cold, wet, or windy it might be!

Date:

Astronomy

Jun. 28, 2013 Rise Set
Actual Time 6:16 AM EDT 8:37 PM EDT
Civil Twilight 5:47 AM EDT 9:06 PM EDT
Nautical Twilight 5:11 AM EDT 9:41 PM EDT
Astronomical Twilight 4:33 AM EDT 10:20 PM EDT
Moon No Moon Rise 12:03 PM EDT (6/28)
Length of Visible Light 15h 18m
Length of Day
14h 21m
Waning Gibbous, 66% of the Moon is Illuminated
Jun 28
Waning Gibbous
Jun 30
Last Quarter
Jul 8
New
Jul 15
First Quarter
Jul 22
Full

Hourly Weather History & Observations

Time (EDT) Temp. Heat Index Dew Point Humidity Pressure Visibility Wind Dir Wind Speed Gust Speed Precip Events Conditions
12:53 AM 75.0 °F - 68.0 °F 79% 29.81 in 10.0 mi SSW 8.1 mph - N/A   Clear
1:53 AM 75.0 °F - 70.0 °F 84% 29.81 in 10.0 mi SSW 9.2 mph - N/A   Clear
2:53 AM 75.0 °F - 70.0 °F 84% 29.80 in 10.0 mi SSW 6.9 mph - N/A   Clear
3:53 AM 73.9 °F - 69.1 °F 85% 29.79 in 10.0 mi South 3.5 mph - N/A   Clear
4:53 AM 73.9 °F - 70.0 °F 87% 29.78 in 10.0 mi SW 5.8 mph - N/A   Clear
5:53 AM 73.0 °F - 71.1 °F 93% 29.77 in 9.0 mi SW 3.5 mph - N/A   Clear
6:53 AM 73.9 °F - 71.1 °F 91% 29.78 in 9.0 mi WSW 9.2 mph - N/A   Clear
7:53 AM 75.9 °F - 71.1 °F 85% 29.79 in 10.0 mi West 11.5 mph - N/A   Partly Cloudy
8:53 AM 79.0 °F - 71.1 °F 77% 29.79 in 10.0 mi WSW 9.2 mph - N/A   Partly Cloudy
9:53 AM 82.0 °F 86.7 °F 72.0 °F 71% 29.78 in 10.0 mi WSW 11.5 mph - N/A   Clear
10:53 AM 84.9 °F 91.4 °F 73.0 °F 67% 29.78 in 10.0 mi WSW 9.2 mph - N/A   Clear
11:53 AM 87.1 °F 95.4 °F 73.9 °F 65% 29.76 in 10.0 mi SSW 9.2 mph - N/A   Clear
12:53 PM 90.0 °F 97.9 °F 73.0 °F 57% 29.75 in 10.0 mi WSW 12.7 mph 19.6 mph N/A   Clear
1:53 PM 91.0 °F 99.3 °F 73.0 °F 55% 29.73 in 10.0 mi WSW 15.0 mph - N/A   Scattered Clouds
2:53 PM 91.9 °F 99.5 °F 72.0 °F 52% 29.71 in 10.0 mi West 11.5 mph - N/A   Scattered Clouds
3:53 PM 91.0 °F 97.6 °F 71.1 °F 52% 29.70 in 10.0 mi SW 11.5 mph - N/A   Scattered Clouds
4:53 PM 93.0 °F 100.1 °F 71.1 °F 49% 29.68 in 10.0 mi WSW 8.1 mph - N/A   Scattered Clouds
5:53 PM 93.0 °F 100.1 °F 71.1 °F 49% 29.67 in 10.0 mi SW 8.1 mph - N/A   Clear
6:53 PM 91.0 °F 98.2 °F 72.0 °F 53% 29.67 in 10.0 mi SW 9.2 mph - N/A   Clear
7:53 PM 88.0 °F 93.8 °F 71.1 °F 57% 29.67 in 10.0 mi SSW 6.9 mph - N/A   Clear
8:53 PM 84.9 °F 90.1 °F 71.1 °F 63% 29.69 in 10.0 mi SW 19.6 mph 26.5 mph N/A   Clear
9:53 PM 81.0 °F 84.4 °F 70.0 °F 69% 29.68 in 10.0 mi SW 11.5 mph - N/A   Clear
10:53 PM 79.0 °F - 68.0 °F 69% 29.66 in 10.0 mi SW 5.8 mph - N/A   Clear
11:53 PM 75.9 °F - 69.1 °F 79% 29.70 in 10.0 mi West 6.9 mph - N/A   Clear